User: anonymous   Login
Location: Alafon
(8.4500°N, 4.2333°E)
Time: 11:37:54
(UTC+00:00)
Language:

Altair - Orbit

View from above orbital plane
View from above orbital plane
View from above satellite
View from above satellite

Ground track
Ground track

The orbit data is extracted from the following two-line orbital elements,

1 00050U 60009B   21214.87453974 -.00000111  00000-0 -22966-3 0  9990
2 00050  47.2312 284.3587 0113305 112.1318 249.1543 12.20116297720450
Epoch (UTC): 02 August 2021 20:59:20
Eccentricity: 0.0113305
inclination: 47.2312°
perigee height: 1502 km
apogee height: 1682 km
right ascension of ascending node: 284.3587°
argument of perigee: 112.1318°
revolutions per day: 12.20116297
mean anomaly at epoch: 249.1543°
orbit number at epoch: 72045

The dashed part of the orbit path shows where the satellite is in the earth's shadow,  

DLR